RH
15 11 9 9 8 8 8 8 8 7 8 8 8 9 9 9 9 9 10 11 11 11 12 12 12 13 13 13 13 13 15 14 14 12 12 9 8 9 9 8 8 8 7 6 6 6 5
13 10 10 9 9 9 9 9 9 9 9 10 10 10 10 10 10 11 12 12 13 14 14 15 16 17 17 15 15 14 14 14 15 13 12 11 12 11 11 10 9 9 9 7 6 6 6
11 10 10 11 10 11 11 11 12 11 11 10 10 10 10 11 12 13 15 16 17 17 18 19 18 19 18 19 17 18 18 18 17 16 15 13 15 13 14 11 11 11 10 9 7 7 7
12 11 12 12 13 13 13 13 13 12 12 12 12 13 15 16 18 19 20 21 20 20 20 20 21 21 20 24 22 23 20 21 21 21 19 18 15 17 17 15 16 14 12 12 7 7 6
13 13 14 14 15 15 14 14 14 14 15 15 16 18 20 21 21 21 21 22 21 21 21 23 23 24 27 30 23 22 22 22 22 21 21 21 21 19 21 21 21 20 15 13 9 8 8
14 15 16 16 15 15 15 16 17 17 17 18 20 22 23 22 21 21 21 21 22 23 21 23 22 24 22 24 23 23 25 25 26 26 27 27 28 30 31 32 35 23 21 17 11 10 10
16 16 17 16 16 16 17 18 18 20 21 21 21 22 23 22 21 22 20 19 20 21 22 21 19 18 17 16 19 19 23 25 26 28 27 28 35 37 35 33 32 27 24 21 18 16 18
18 18 18 17 17 18 20 21 23 23 24 24 23 23 22 21 22 21 19 18 18 18 16 17 17 21 20 20 21 20 20 22 24 28 30 30 29 32 33 39 40 37 36 35 33 28 25
20 19 19 18 19 22 23 24 24 25 26 25 24 24 23 21 21 20 18 16 16 16 19 21 18 19 22 21 24 24 24 26 30 33 36 37 35 36 35 37 44 45 42 44 41 34 30
21 20 19 20 23 25 24 25 26 27 26 26 26 24 22 21 18 19 21 22 16 18 23 18 18 18 18 16 21 21 23 24 28 30 39 41 44 51 52 46 42 39 41 46 44 46 50
19 20 21 22 25 26 24 25 27 27 27 27 26 23 19 16 16 17 23 24 25 28 43 18 16 15 16 18 19 21 23 22 28 30 40 36 42 48 54 59 55 47 54 49 50 52 57
21 22 22 23 25 24 24 26 27 29 29 28 24 20 15 13 14 15 18 23 29 31 36 17 15 19 20 21 25 29 36 36 37 39 35 43 38 46 46 50 57 63 69 73 65 65 82
22 23 23 23 24 24 24 27 28 30 29 26 22 17 14 13 10 11 16 27 21 27 18 19 23 26 32 35 37 49 57 49 50 55 58 50 56 48 45 41 45 59 71 95 96 94 85
23 23 23 24 26 25 24 29 30 30 27 22 17 15 13 10 9 11 15 10 24 20 24 26 32 40 48 45 47 52 61 53 50 69 81 91 81 80 88 87 61 50 66 84 92 80 69
24 24 24 26 27 27 27 32 33 28 24 19 17 14 10 9 9 9 8 25 27 27 32 38 44 49 53 54 57 56 60 59 60 74 88 93 84 75 80 95 95 51 75 64 75 85 76
30 29 26 28 29 29 31 34 33 26 21 18 17 14 10 10 10 10 14 22 25 35 46 51 57 63 74 68 55 54 54 55 62 70 82 91 91 72 85 90 94 75 51 80 87 89 74
35 29 30 27 30 32 35 36 29 23 20 18 16 13 10 10 12 13 30 30 36 47 57 65 65 75 80 82 67 57 52 49 54 71 84 90 96 75 88 98 82 75 78 90 88 75 68
35 34 33 36 35 34 38 33 26 20 18 18 14 15 11 10 14 22 29 33 41 48 57 70 75 80 89 91 85 80 75 63 68 80 88 93 93 88 93 94 79 77 82 83 81 74 70
39 42 39 35 32 35 34 27 22 19 18 15 13 13 13 10 22 28 29 35 43 49 56 67 75 79 89 95 95 87 85 79 81 87 92 94 90 87 79 94 93 96 93 90 78 73 80
46 40 39 35 37 36 30 23 18 19 17 16 13 19 15 17 21 24 29 36 44 47 54 62 70 76 86 94 96 94 96 91 87 84 87 96 97 96 95 98 95 96 95 92 86 92 94
45 43 38 40 39 35 28 22 19 18 17 14 13 18 20 26 26 26 29 36 43 47 49 59 61 72 84 90 95 95 97 94 92 89 92 93 95 96 97 91 85 96 93 90 92 94 90
45 42 39 40 38 35 27 21 19 17 16 13 13 16 21 25 27 27 30 36 43 47 48 59 65 65 75 86 92 97 95 91 92 94 95 96 96 97 98 93 84 85 90 87 88 87 85
45 43 41 39 36 32 29 20 17 14 14 12 13 17 20 28 30 32 38 39 41 47 45 53 59 62 67 75 85 86 89 91 93 93 97 96 95 97 96 89 72 72 96 96 95 97 97
46 43 39 38 33 32 24 20 17 14 12 10 13 17 21 32 30 34 36 39 41 45 47 46 54 60 59 63 74 76 80 87 86 87 89 97 95 91 88 80 81 97 98 98 97 97 97
46 42 40 37 35 27 23 20 17 16 14 12 14 16 21 31 31 32 34 36 36 39 44 47 51 57 54 54 62 74 77 78 88 86 84 81 84 80 86 88 94 87 95 97 98 97 98
46 42 41 36 32 26 22 19 17 15 14 13 15 17 20 24 31 29 30 32 36 40 40 44 47 52 55 60 69 84 85 83 84 76 76 78 75 75 84 87 95 98 96 87 96 91 96
45 42 41 38 30 25 21 19 17 18 17 14 15 17 17 21 23 23 26 29 30 32 39 44 48 54 57 67 76 85 86 86 90 95 96 86 85 88 84 89 96 98 91 77 79 96 98
47 45 42 38 27 21 21 20 18 16 15 13 15 17 17 18 21 24 24 23 26 28 35 37 44 54 60 70 78 83 87 89 88 90 95 92 91 92 83 83 92 93 85 82 90 88 92
50 46 43 40 28 21 18 20 18 17 14 14 14 17 18 19 22 23 24 22 23 24 26 31 41 50 57 64 71 74 82 81 79 84 80 85 87 89 86 91 90 86 84 79 76 76 76